Regional Weather Roundup
Issued by NWS Upton, NY

Home | Current Version | Previous Version | Text Only | Print | Product List | Glossary On
Versions: 1 2 3 4 5 6 7 8 9 10 11 12 13 14 15 16 17 18 19 20 21 22 23 24 25 26 27 28 29 30 31 32 33 34 35 36 37 38 39 40 41 42 43 44 45 46 47 48 49 50
000
ASUS41 KOKX 141505
RWROKX

REGIONAL WEATHER ROUNDUP
NATIONAL WEATHER SERVICE NEW YORK NY
1100 AM EDT MON JUL 14 2014

NOTE: "FAIR" INDICATES FEW OR NO CLOUDS BELOW 12,000 FEET WITH NO
SIGNIFICANT WEATHER AND/OR OBSTRUCTIONS TO VISIBILITY.

NYZ071-072-176-178-NJZ106-104-141600-
NEW YORK CITY METRO AREA


CITY           SKY/WX    TMP DP  RH WIND       PRES   REMARKS
CENTRAL PARK     N/A     75  70  83 MISG        N/A
LAGUARDIA APRT LGT RAIN  78  69  73 VRB5      29.91F
KENNEDY INTL   CLOUDY    77  68  73 SW3       29.93F
NEWARK/LIBERTY CLOUDY    77  71  82 CALM      29.92S
BRNX BOT. GARD   N/A     75  70  83 CALM      29.94F
TETERBORO      LGT RAIN  78  70  76 S6        29.91S
$$

NYZ177-179-078>081-141600-
LONG ISLAND NEW YORK

CITY           SKY/WX    TMP DP  RH WIND       PRES   REMARKS
FARMINGDALE    PTSUNNY   77  70  79 SW6       29.93S
ISLIP          CLOUDY    79  68  69 SW9       29.92S
SHIRLEY        PTSUNNY   79  69  71 SW10      29.94S
WESTHAMPTON    PTSUNNY   78  69  73 SW8       29.95S
MONTAUK POINT    N/A     76  69  79 SW8       29.96R
$$

NYZ052-065-067-141600-
HUDSON VALLEY

CITY           SKY/WX    TMP DP  RH WIND       PRES   REMARKS
WHITE PLAINS   PTSUNNY   75  69  81 SW3       29.93S
NEWBURGH       PTSUNNY   75  72  88 CALM      29.94S
MONTGOMERY     CLOUDY    77  70  79 SW3       29.92F
POUGHKEEPSIE   PTSUNNY   78  69  73 CALM      29.91S
ALBANY         PTSUNNY   80  67  64 S8        29.90S
$$

NJZ001-105-106-008-010-013-015-019>022-104-141600-
NEW JERSEY

CITY           SKY/WX    TMP DP  RH WIND       PRES   REMARKS
NEWARK/LIBERTY CLOUDY    77  71  82 CALM      29.92S
TETERBORO      LGT RAIN  78  70  76 S6        29.91S
CALDWELL       PTSUNNY   75  70  83 CALM      29.93S
MORRISTOWN     PTSUNNY   77  73  88 S5        29.93F
SOMERVILLE     PTSUNNY   77  72  84 S5        29.90F
LINDEN         PTSUNNY   79  71  77 CALM      29.93F
SUSSEX         PTSUNNY   79  69  71 CALM      29.93S
ANDOVER          N/A     76  68  76 CALM      29.94F
TRENTON        PTSUNNY   78  71  79 S5        29.91F
MILLVILLE      PTSUNNY   83  75  77 VRB5      29.92S HX  90
ATLANTIC CITY  MOSUNNY   81  74  79 S6        29.92F
WRIGHTSTOWN    NOT AVBL
TOMS RIVER     CLOUDY    82  73  74 CALM      29.92F
BELMAR         CLOUDY    81  72  74 W6        29.93S
$$

PAZ047>061-062-071-141600-
EASTERN PENNSYLVANIA

CITY           SKY/WX    TMP DP  RH WIND       PRES   REMARKS
PHILADELPHIA   PTSUNNY   81  70  69 SW6       29.91F
ALLENTOWN      LGT RAIN  79  70  74 CALM      29.92F
SCRANTON       CLOUDY    79  65  62 CALM      29.93S
$$

CTZ002-004>006-009-010-012-RIZ004-006-007-MAZ004-011-015-141600-
SOUTHERN NEW ENGLAND
 IN CT

CITY           SKY/WX    TMP DP  RH WIND       PRES   REMARKS
BRADLEY INTL   PTSUNNY   80  70  71 VRB3      29.91S
HARTFORD       PTSUNNY   78  69  73 S5        29.91F
DANBURY        CLOUDY    75  67  76 SW3       29.95S
WTRBRY/OXFORD  CLOUDY    73  64  73 CALM      29.97S
BRIDGEPORT     PTSUNNY   77  71  82 SW8       29.92S
MERIDEN        CLOUDY    75  69  81 S5        29.93S
NEW HAVEN      CLOUDY    77  70  79 VRB6      29.93S
CHESTER        PTSUNNY   77  72  83 S7        29.95R
GROTON         MOSUNNY   76  71  85 SW9       29.92S HAZE
WILLIMANTIC    CLOUDY    77  69  76 SW6       29.93S

 IN RI

CITY           SKY/WX    TMP DP  RH WIND       PRES   REMARKS
PROVIDENCE     PTSUNNY   82  70  66 SW9       29.92S
BLOCK ISLAND   PTSUNNY   73  66  78 SW14      29.96R
WESTERLY       MOSUNNY   79  70  74 SW8       29.94S

 IN MA

CITY           SKY/WX    TMP DP  RH WIND       PRES   REMARKS
BOSTON         PTSUNNY   81  71  71 S8        29.90S
WORCESTER      PTSUNNY   78  67  68 W8        29.95S
WESTFIELD      SUNNY     81  68  64 VRB3      29.91S
PROVINCETOWN   MOSUNNY   77  72  83 S14       29.92F
NANTUCKET      CLOUDY    73  68  84 SW16      29.97R
$$

ANZ330-335-338-340-345-350-353-355-141600-
COASTAL MARINE OBSERVATIONS


STATION/POSITION TIME  SKY/WX   TEMP    WIND        PRES    VSBY  WAVE
                                AIR SEA DIR/SP/G                  HT/PER
                 (UTC)          (F)     (DEG/KT/KT) (MB)    (MI)  (FT/S)
NY HARB ENTRANCE NOT AVBL
4S FIRE IS       1400               68                N/A           4/ 6
23SW MTP         1500            69 68              1013.8          4/ 6
HUDSON CANYON    1500            73 71  200/ 14/ 16 1014.1          4/ 6
EXECUTION ROCKS  1500            74 67   CALM  /  4   N/A
WESTERN LI SOUND 1500            73     200/  2/  2   N/A           0
CENTRAL LI SOUND 1400            72 71  270/  2/  4   N/A           0
EASTERN LI SOUND 1400            73 64  260/  4/  6   N/A
ROBBINS REEF     1500            74     150/  6/  6   N/A
$$


>>>>>>>>>>>>>>>>>>>>>>>>>>>> KEY <<<<<<<<<<<<<<<<<<<<<<<<<<<
>                                                          <
>     SKY/WX - SKY CONDITION/PRESENT WEATHER               <
>     TMP    - TEMPERATURE IN FAHRENHEIT                   <
>     DP     - DEWPOINT IN FAHRENHEIT                      <
>     RH     - RELATIVE HUMIDITY IN PERCENT                <
>     WIND   - DIRECTION AND SPEED IN MPH                  <
>     PRES   - MEAN SEA LEVEL PRESSURE IN INCHES OF HG     <
>     WCI    - WIND CHILL INDEX                            <
>     VSB    - VISIBILITY IN MILES                         <
>     HX     - HEAT INDEX                                  <
>     TC     - TEMPERATURE IN CELSIUS                      <
>     VRB    - VARIABLE WIND DIRECTION                     <
>                                                          <
>>>>>>>>>>>>>>>>>>>>>>>>>>>> KEY <<<<<<<<<<<<<<<<<<<<<<<<<<<





USA.gov is the U.S. government's official web portal to all federal, state and local government web resources and services.